| time (UTC) | temp F | wind direction | speed MPH | gust MPH | rain 1hr in | rain 24hr in | rain mn in | humidity % | barometer mb |
| 20260904171850 | 60 | 0 | 0.0 | 7.0 | 0.00 | 0.00 | 0.00 | 89 | 1010.8 |
| 20260904171349 | 60 | 0 | 0.0 | 7.0 | 0.00 | 0.00 | 0.00 | 89 | 1010.7 |
| 20260904170848 | 60 | 120 | 0.0 | 7.0 | 0.00 | 0.00 | 0.00 | 89 | 1010.7 |
| 20260904165846 | 60 | 113 | 0.0 | 5.0 | 0.00 | 0.00 | 0.00 | 89 | 1010.5 |
| 20260904165345 | 60 | 120 | 0.0 | 11.0 | 0.00 | 0.00 | 0.00 | 90 | 1010.5 |
| 20260904164844 | 59 | 144 | 0.0 | 11.0 | 0.00 | 0.00 | 0.00 | 90 | 1010.4 |
| 20260904164344 | 59 | 123 | 0.0 | 11.0 | 0.00 | 0.00 | 0.00 | 90 | 1010.4 |
| 20260904163843 | 59 | 124 | 0.0 | 8.0 | 0.00 | 0.00 | 0.00 | 1010.5 | |
| 20260904162841 | 59 | 0 | 0.0 | 0.0 | 0.00 | 0.00 | 0.00 | 1010.5 | |
| 20260904162340 | 59 | 0 | 0.0 | 0.0 | 0.00 | 0.00 | 0.00 | 91 | 1010.5 |
| 20260904161338 | 59 | 0 | 0.0 | 0.0 | 0.00 | 0.00 | 0.00 | 91 | 1010.4 |
| 20260904155333 | 59 | 0 | 0.0 | 7.0 | 0.00 | 0.00 | 0.00 | 91 | 1010.4 |
| 20260904154832 | 59 | 120 | 0.0 | 7.0 | 0.00 | 0.00 | 0.00 | 91 | 1010.4 |
| 20260904153830 | 58 | 0 | 0.0 | 17.0 | 0.00 | 0.00 | 0.00 | 92 | 1010.3 |
| 20260904153329 | 58 | 130 | 0.0 | 17.0 | 0.00 | 0.00 | 0.00 | 92 | 1010.2 |
| 20260904152328 | 58 | 128 | 5.0 | 14.0 | 0.00 | 0.00 | 0.00 | 92 | 1010.2 |
| 20260904151325 | 58 | 119 | 8.0 | 16.0 | 0.00 | 0.00 | 0.00 | 92 | 1010.0 |
| 20260904150323 | 58 | 127 | 9.0 | 16.0 | 0.00 | 0.00 | 0.00 | 92 | 1009.9 |
| 20260904145321 | 58 | 127 | 9.0 | 16.0 | 0.00 | 0.00 | 0.00 | 92 | 1009.8 |
| 20260904144319 | 57 | 131 | 7.0 | 16.0 | 0.00 | 0.00 | 0.00 | 92 | 1009.6 |
| 20260904143818 | 57 | 130 | 6.0 | 15.0 | 0.00 | 0.00 | 0.00 | 93 | 1009.5 |
| 20260904143317 | 57 | 126 | 11.0 | 15.0 | 0.00 | 0.00 | 0.00 | 1009.5 | |
| 20260904142315 | 57 | 127 | 6.0 | 12.0 | 0.00 | 0.00 | 0.00 | 1009.4 | |
| 20260904141313 | 57 | 134 | 8.0 | 15.0 | 0.00 | 0.00 | 0.00 | 93 | 1009.3 |
| 20260904135309 | 57 | 126 | 8.0 | 15.0 | 0.00 | 0.00 | 0.00 | 1009.1 | |
| 20260904134307 | 57 | 131 | 10.0 | 12.0 | 0.00 | 0.00 | 0.00 | 1008.9 | |
| 20260904133806 | 57 | 126 | 7.0 | 19.0 | 0.00 | 0.00 | 0.00 | 1008.9 | |
| 20260904133305 | 57 | 121 | 6.0 | 19.0 | 0.00 | 0.00 | 0.00 | 1008.8 | |
| 20260904132804 | 57 | 131 | 10.0 | 19.0 | 0.00 | 0.00 | 0.00 | 1008.7 | |
| 20260904132306 | 57 | 113 | 6.0 | 17.0 | 0.00 | 0.00 | 0.00 | 1008.7 | |
| 20260904131802 | 57 | 127 | 8.0 | 14.0 | 0.00 | 0.00 | 0.00 | 1008.5 | |
| 20260904131301 | 57 | 127 | 8.0 | 20.0 | 0.00 | 0.00 | 0.00 | 1008.5 | |
| 20260904130800 | 57 | 127 | 7.0 | 20.0 | 0.00 | 0.00 | 0.00 | 1008.5 | |
| 20260904130259 | 57 | 127 | 9.0 | 20.0 | 0.00 | 0.00 | 0.00 | 1008.6 | |
| 20260904125758 | 57 | 131 | 8.0 | 14.0 | 0.00 | 0.00 | 0.00 | 1008.5 | |
| 20260904125257 | 57 | 117 | 5.0 | 16.0 | 0.00 | 0.00 | 0.00 | 1008.5 | |
| 20260904124756 | 57 | 130 | 7.0 | 16.0 | 0.00 | 0.00 | 0.00 | 1008.5 | |
| 20260904124255 | 57 | 133 | 7.0 | 16.0 | 0.00 | 0.00 | 0.00 | 1008.4 | |
| 20260904123754 | 57 | 124 | 7.0 | 15.0 | 0.00 | 0.00 | 0.00 | 1008.3 | |
| 20260904123253 | 57 | 124 | 8.0 | 14.0 | 0.00 | 0.00 | 0.00 | 1008.3 | |
| 20260904122752 | 57 | 123 | 9.0 | 14.0 | 0.00 | 0.00 | 0.00 | 1008.3 | |
| 20260904121750 | 57 | 123 | 7.0 | 16.0 | 0.00 | 0.00 | 0.00 | 94 | 1008.3 |
| 20260904120748 | 57 | 128 | 6.0 | 15.0 | 0.00 | 0.00 | 0.00 | 94 | 1008.3 |
| 20260904120247 | 57 | 124 | 6.0 | 15.0 | 0.00 | 0.00 | 0.00 | 94 | 1008.3 |
| 20260904115746 | 57 | 126 | 7.0 | 15.0 | 0.00 | 0.00 | 0.00 | 94 | 1008.4 |
| 20260904115245 | 57 | 127 | 9.0 | 15.0 | 0.00 | 0.00 | 0.00 | 94 | 1008.3 |
| 20260904114744 | 57 | 127 | 8.0 | 15.0 | 0.00 | 0.00 | 0.00 | 94 | 1008.2 |
| 20260904113742 | 57 | 131 | 9.0 | 13.0 | 0.00 | 0.00 | 0.00 | 94 | 1008.1 |
| 20260904113241 | 57 | 131 | 7.0 | 13.0 | 0.00 | 0.00 | 0.00 | 94 | 1008.1 |
| 20260904112740 | 57 | 134 | 6.0 | 13.0 | 0.00 | 0.00 | 0.00 | 94 | 1008.1 |
| 20260904111738 | 57 | 127 | 5.0 | 11.0 | 0.00 | 0.00 | 0.00 | 94 | 1008.0 |
| 20260904111237 | 57 | 120 | 7.0 | 13.0 | 0.00 | 0.00 | 0.00 | 94 | 1007.9 |
| 20260904110736 | 57 | 124 | 5.0 | 13.0 | 0.00 | 0.00 | 0.00 | 94 | 1007.9 |
| 20260904105734 | 57 | 127 | 5.0 | 11.0 | 0.00 | 0.00 | 0.00 | 94 | 1008.0 |
| 20260904105233 | 57 | 130 | 8.0 | 14.0 | 0.00 | 0.00 | 0.00 | 94 | 1007.9 |
| 20260904104732 | 57 | 123 | 6.0 | 14.0 | 0.00 | 0.00 | 0.00 | 94 | 1007.9 |
| 20260904104233 | 57 | 126 | 7.0 | 14.0 | 0.00 | 0.00 | 0.00 | 94 | 1007.8 |
| 20260904103229 | 57 | 127 | 6.0 | 10.0 | 0.00 | 0.00 | 0.00 | 94 | 1007.8 |
| 20260904101726 | 57 | 126 | 6.0 | 9.0 | 0.00 | 0.00 | 0.00 | 94 | 1007.8 |
| 20260904101225 | 57 | 127 | 5.0 | 9.0 | 0.00 | 0.00 | 0.00 | 94 | 1007.8 |
| 20260904100724 | 57 | 127 | 1.0 | 9.0 | 0.00 | 0.00 | 0.00 | 94 | 1007.8 |
| 20260904100223 | 57 | 131 | 2.0 | 9.0 | 0.00 | 0.00 | 0.00 | 94 | 1007.8 |
| 20260904095722 | 57 | 130 | 3.0 | 12.0 | 0.00 | 0.00 | 0.00 | 94 | 1007.8 |
| 20260904095221 | 57 | 120 | 4.0 | 12.0 | 0.00 | 0.00 | 0.00 | 94 | 1007.8 |
| 20260904094219 | 57 | 126 | 6.0 | 9.0 | 0.00 | 0.00 | 0.00 | 94 | 1007.8 |
| 20260904092716 | 57 | 119 | 5.0 | 11.0 | 0.00 | 0.00 | 0.00 | 94 | 1007.6 |
| 20260904092215 | 57 | 124 | 8.0 | 11.0 | 0.00 | 0.00 | 0.00 | 94 | 1007.6 |
| 20260904091714 | 57 | 130 | 4.0 | 10.0 | 0.00 | 0.00 | 0.00 | 94 | 1007.5 |
| 20260904090211 | 57 | 131 | 5.0 | 15.0 | 0.00 | 0.00 | 0.00 | 95 | 1007.4 |
| 20260904085710 | 57 | 121 | 7.0 | 15.0 | 0.00 | 0.00 | 0.00 | 95 | 1007.3 |
| 20260904084708 | 57 | 134 | 5.0 | 17.0 | 0.00 | 0.00 | 0.00 | 95 | 1007.3 |
| 20260904084207 | 57 | 130 | 5.0 | 17.0 | 0.00 | 0.00 | 0.00 | 95 | 1007.3 |
| 20260904083706 | 57 | 124 | 9.0 | 17.0 | 0.00 | 0.00 | 0.00 | 95 | 1007.3 |
| 20260904082704 | 57 | 124 | 8.0 | 15.0 | 0.00 | 0.00 | 0.00 | 95 | 1007.4 |
| 20260904082203 | 57 | 126 | 9.0 | 15.0 | 0.00 | 0.00 | 0.00 | 95 | 1007.4 |
| 20260904081702 | 57 | 127 | 9.0 | 15.0 | 0.00 | 0.00 | 0.00 | 95 | 1007.4 |
| 20260904081201 | 57 | 130 | 10.0 | 20.0 | 0.00 | 0.00 | 0.00 | 95 | 1007.4 |
| 20260904080700 | 57 | 117 | 7.0 | 20.0 | 0.00 | 0.00 | 0.00 | 95 | 1007.4 |
| 20260904075658 | 57 | 130 | 12.0 | 18.0 | 0.00 | 0.00 | 0.00 | 95 | 1007.3 |
| 20260904075159 | 57 | 114 | 9.0 | 17.0 | 0.00 | 0.00 | 0.00 | 95 | 1007.3 |
| 20260904074656 | 57 | 124 | 9.0 | 17.0 | 0.00 | 0.00 | 0.00 | 95 | 1007.3 |
| 20260904074155 | 57 | 126 | 10.0 | 17.0 | 0.00 | 0.00 | 0.00 | 95 | 1007.3 |
| 20260904072652 | 57 | 119 | 7.0 | 13.0 | 0.00 | 0.00 | 0.00 | 95 | 1007.4 |
| 20260904071650 | 57 | 119 | 9.0 | 17.0 | 0.00 | 0.00 | 0.00 | 95 | 1007.3 |
| 20260904071149 | 57 | 131 | 9.0 | 17.0 | 0.00 | 0.00 | 0.00 | 95 | 1007.3 |
| 20260904070147 | 57 | 121 | 8.0 | 9.0 | 0.00 | 0.00 | 0.00 | 95 | 1007.3 |
| 20260904065646 | 57 | 0 | 0.0 | 0.0 | 0.00 | 0.00 | 0.00 | 95 | 1007.4 |
| 20260904064644 | 57 | 0 | 0.0 | 0.0 | 0.00 | 0.00 | 0.00 | 95 | 1007.4 |
| 20260904062640 | 57 | 0 | 0.0 | 0.0 | 0.00 | 0.00 | 0.00 | 95 | 1007.4 |
| 20260904062139 | 57 | 0 | 0.0 | 0.0 | 0.00 | 0.00 | 0.00 | 100 | 1007.4 |
| 20260904061638 | 57 | 0 | 0.0 | 0.0 | 0.00 | 0.00 | 0.00 | 95 | 1007.5 |
| 20260904061137 | 57 | 0 | 0.0 | 0.0 | 0.00 | 0.00 | 0.00 | 95 | 1007.5 |
| 20260904060636 | 57 | 0 | 0.0 | 0.0 | 0.00 | 0.00 | 0.00 | 95 | 1007.5 |
| 20260904060135 | 57 | 0 | 0.0 | 0.0 | 0.00 | 0.00 | 0.00 | 95 | 1007.5 |
| 20260904055133 | 57 | 0 | 0.0 | 0.0 | 0.00 | 0.00 | 0.00 | 95 | 1007.7 |
| 20260904054632 | 57 | 0 | 0.0 | 0.0 | 0.00 | 0.00 | 0.00 | 95 | 1007.6 |
| 20260904054131 | 57 | 0 | 0.0 | 0.0 | 0.00 | 0.00 | 0.00 | 95 | 1007.7 |
| 20260904053630 | 57 | 0 | 0.0 | 0.0 | 0.00 | 0.00 | 0.00 | 1007.8 | |
| 20260904052628 | 57 | 0 | 0.0 | 0.0 | 0.00 | 0.00 | 0.00 | 95 | 1007.9 |
| 20260904052127 | 57 | 0 | 0.0 | 0.0 | 0.00 | 0.00 | 0.00 | 95 | 1007.8 |
| 20260904051626 | 57 | 0 | 0.0 | 0.0 | 0.00 | 0.00 | 0.00 | 95 | 1007.8 |
| 20260904051125 | 57 | 0 | 0.0 | 0.0 | 0.00 | 0.00 | 0.00 | 95 | 1007.7 |
| 20260904050624 | 57 | 0 | 0.0 | 0.0 | 0.00 | 0.00 | 0.00 | 95 | 1007.7 |
| 20260904050123 | 57 | 0 | 0.0 | 0.0 | 0.00 | 0.00 | 0.00 | 95 | 1007.8 |
| 20260904045622 | 58 | 0 | 0.0 | 0.0 | 0.00 | 0.00 | 0.00 | 95 | 1007.8 |
| 20260904045121 | 57 | 0 | 0.0 | 0.0 | 0.00 | 0.00 | 0.00 | 95 | 1007.7 |
| 20260904044620 | 58 | 0 | 0.0 | 0.0 | 0.00 | 0.00 | 0.00 | 95 | 1007.7 |
| 20260904044119 | 58 | 0 | 0.0 | 0.0 | 0.00 | 0.00 | 0.00 | 95 | 1007.7 |
| 20260904043619 | 58 | 0 | 0.0 | 0.0 | 0.00 | 0.00 | 0.00 | 95 | 1007.7 |
| 20260904043117 | 58 | 0 | 0.0 | 0.0 | 0.00 | 0.00 | 0.00 | 95 | 1007.8 |
| 20260904042617 | 58 | 0 | 0.0 | 0.0 | 0.00 | 0.00 | 0.00 | 95 | 1007.8 |
| 20260904042115 | 58 | 0 | 0.0 | 0.0 | 0.00 | 0.00 | 0.00 | 95 | 1007.8 |
| 20260904041614 | 58 | 0 | 0.0 | 0.0 | 0.00 | 0.00 | 0.00 | 95 | 1007.7 |
| 20260904041113 | 58 | 0 | 0.0 | 0.0 | 0.00 | 0.00 | 0.00 | 1007.8 | |
| 20260904040111 | 58 | 0 | 0.0 | 0.0 | 0.00 | 0.00 | 0.00 | 95 | 1007.6 |
| 20260904035610 | 58 | 0 | 0.0 | 0.0 | 0.00 | 0.00 | 0.00 | 95 | 1007.6 |
| 20260904035109 | 58 | 0 | 0.0 | 0.0 | 0.00 | 0.00 | 0.00 | 95 | 1007.6 |
| 20260904034608 | 58 | 0 | 0.0 | 0.0 | 0.00 | 0.00 | 0.00 | 95 | 1007.5 |
| 20260904034107 | 58 | 0 | 0.0 | 0.0 | 0.00 | 0.00 | 0.00 | 95 | 1007.5 |
| 20260904033606 | 58 | 0 | 0.0 | 0.0 | 0.00 | 0.00 | 0.00 | 95 | 1007.5 |
| 20260904033105 | 58 | 0 | 0.0 | 0.0 | 0.00 | 0.00 | 0.00 | 95 | 1007.4 |
| 20260904032604 | 58 | 0 | 0.0 | 0.0 | 0.00 | 0.00 | 0.00 | 95 | 1007.3 |
| 20260904031602 | 58 | 0 | 0.0 | 0.0 | 0.00 | 0.00 | 0.00 | 1007.3 | |
| 20260904031101 | 58 | 0 | 0.0 | 0.0 | 0.00 | 0.00 | 0.00 | 1007.3 | |
| 20260904030600 | 58 | 0 | 0.0 | 0.0 | 0.00 | 0.00 | 0.00 | 1007.3 | |
| 20260904030059 | 58 | 0 | 0.0 | 0.0 | 0.00 | 0.00 | 0.00 | 95 | 1007.2 |
| 20260904025558 | 59 | 0 | 0.0 | 0.0 | 0.00 | 0.00 | 0.00 | 1007.3 | |
| 20260904025057 | 59 | 0 | 0.0 | 0.0 | 0.00 | 0.00 | 0.00 | 1007.3 | |
| 20260904024556 | 59 | 0 | 0.0 | 0.0 | 0.00 | 0.00 | 0.00 | 1007.2 | |
| 20260904024055 | 59 | 0 | 0.0 | 0.0 | 0.00 | 0.00 | 0.00 | 1007.2 | |
| 20260904023053 | 59 | 0 | 0.0 | 0.0 | 0.00 | 0.00 | 0.00 | 1007.2 | |
| 20260904022051 | 59 | 0 | 0.0 | 0.0 | 0.00 | 0.00 | 0.00 | 95 | 1007.2 |
| 20260904021550 | 59 | 0 | 0.0 | 0.0 | 0.00 | 0.00 | 0.00 | 95 | 1007.2 |
| 20260904020548 | 59 | 0 | 0.0 | 0.0 | 0.00 | 0.00 | 0.00 | 95 | 1007.2 |
| 20260904015546 | 59 | 0 | 0.0 | 0.0 | 0.00 | 0.00 | 0.00 | 95 | 1007.2 |
| 20260904015045 | 59 | 0 | 0.0 | 0.0 | 0.00 | 0.00 | 0.00 | 95 | 1007.1 |
| 20260904014544 | 59 | 0 | 0.0 | 0.0 | 0.00 | 0.00 | 0.00 | 95 | 1007.1 |
| 20260904014043 | 59 | 0 | 0.0 | 0.0 | 0.00 | 0.00 | 0.00 | 95 | 1007.1 |
| 20260904013542 | 59 | 0 | 0.0 | 0.0 | 0.00 | 0.00 | 0.00 | 95 | 1007.1 |
| 20260904012540 | 59 | 0 | 0.0 | 0.0 | 0.00 | 0.00 | 0.00 | 95 | 1007.2 |
| 20260904012039 | 59 | 0 | 0.0 | 0.0 | 0.00 | 0.00 | 0.00 | 95 | 1007.2 |
| 20260904011538 | 59 | 0 | 0.0 | 0.0 | 0.00 | 0.00 | 0.00 | 94 | 1007.2 |
| 20260904011037 | 59 | 0 | 0.0 | 0.0 | 0.00 | 0.00 | 0.00 | 95 | 1007.1 |
| 20260904010035 | 59 | 0 | 0.0 | 0.0 | 0.00 | 0.00 | 0.00 | 94 | 1007.2 |
| 20260904005534 | 59 | 0 | 0.0 | 0.0 | 0.00 | 0.00 | 0.00 | 94 | 1007.3 |
| 20260904005033 | 59 | 0 | 0.0 | 0.0 | 0.00 | 0.00 | 0.00 | 94 | 1007.3 |
| 20260904004532 | 59 | 0 | 0.0 | 0.0 | 0.00 | 0.00 | 0.00 | 94 | 1007.3 |
| 20260904003530 | 59 | 0 | 0.0 | 0.0 | 0.00 | 0.00 | 0.00 | 94 | 1007.3 |
| 20260904003029 | 59 | 0 | 0.0 | 0.0 | 0.00 | 0.00 | 0.00 | 94 | 1007.3 |
| 20260904002528 | 59 | 0 | 0.0 | 0.0 | 0.00 | 0.00 | 0.00 | 94 | 1007.3 |
| 20260904001526 | 59 | 0 | 0.0 | 0.0 | 0.00 | 0.00 | 0.00 | 94 | 1007.2 |
| 20260904001025 | 59 | 0 | 0.0 | 0.0 | 0.00 | 0.00 | 0.00 | 94 | 1007.3 |
| 20260904000524 | 59 | 0 | 0.0 | 0.0 | 0.00 | 0.00 | 0.00 | 94 | 1007.2 |
| 20260904000023 | 60 | 0 | 0.0 | 0.0 | 0.00 | 0.00 | 0.00 | 94 | 1007.2 |
| 20260903235522 | 60 | 0 | 0.0 | 0.0 | 0.00 | 0.00 | 0.00 | 94 | 1007.1 |
| 20260903235023 | 60 | 0 | 0.0 | 0.0 | 0.00 | 0.00 | 0.00 | 94 | 1007.1 |
| 20260903234520 | 60 | 0 | 0.0 | 0.0 | 0.00 | 0.00 | 0.00 | 94 | 1007.2 |
| 20260903234019 | 60 | 0 | 0.0 | 0.0 | 0.00 | 0.00 | 0.00 | 94 | 1007.3 |
| 20260903233518 | 60 | 0 | 0.0 | 0.0 | 0.00 | 0.00 | 0.00 | 94 | 1007.4 |
| 20260903232516 | 60 | 0 | 0.0 | 0.0 | 0.00 | 0.00 | 0.00 | 94 | 1007.4 |
| 20260903230512 | 60 | 0 | 0.0 | 0.0 | 0.00 | 0.00 | 0.00 | 1007.5 | |
| 20260903230011 | 60 | 0 | 0.0 | 0.0 | 0.00 | 0.00 | 0.00 | 1007.5 | |
| 20260903225510 | 60 | 0 | 0.0 | 0.0 | 0.00 | 0.00 | 0.00 | 1007.6 | |
| 20260903225009 | 60 | 0 | 0.0 | 0.0 | 0.00 | 0.00 | 0.00 | 1007.5 | |
| 20260903224508 | 60 | 0 | 0.0 | 0.0 | 0.00 | 0.00 | 0.00 | 1007.6 | |
| 20260903224007 | 60 | 0 | 0.0 | 0.0 | 0.00 | 0.00 | 0.00 | 1007.5 | |
| 20260903223506 | 60 | 0 | 0.0 | 0.0 | 0.00 | 0.00 | 0.00 | 100 | 1007.5 |
| 20260903223005 | 59 | 0 | 0.0 | 0.0 | 0.00 | 0.00 | 0.00 | 1007.5 | |
| 20260903222504 | 59 | 0 | 0.0 | 0.0 | 0.00 | 0.00 | 0.00 | 1007.6 | |
| 20260903222003 | 59 | 0 | 0.0 | 0.0 | 0.00 | 0.00 | 0.00 | 1007.6 | |
| 20260903221502 | 59 | 0 | 0.0 | 0.0 | 0.00 | 0.00 | 0.00 | 1007.6 | |
| 20260903221001 | 59 | 0 | 0.0 | 0.0 | 0.00 | 0.00 | 0.00 | 1007.4 | |
| 20260903220500 | 60 | 0 | 0.0 | 0.0 | 0.00 | 0.00 | 0.00 | 1007.6 | |
| 20260903215458 | 59 | 0 | 0.0 | 0.0 | 0.00 | 0.00 | 0.00 | 1007.4 | |
| 20260903214456 | 60 | 0 | 0.0 | 0.0 | 0.00 | 0.00 | 0.00 | 1007.5 | |
| 20260903213955 | 60 | 0 | 0.0 | 0.0 | 0.00 | 0.00 | 0.00 | 1007.6 | |
| 20260903212953 | 60 | 0 | 0.0 | 0.0 | 0.00 | 0.00 | 0.00 | 1007.9 | |
| 20260903210949 | 61 | 140 | 0.0 | 5.0 | 0.00 | 0.00 | 0.00 | 1007.6 | |
| 20260903210448 | 61 | 186 | 0.0 | 10.0 | 0.00 | 0.00 | 0.00 | 1007.4 | |
| 20260903205947 | 62 | 186 | 0.0 | 10.0 | 0.00 | 0.00 | 0.00 | 1007.4 | |
| 20260903205446 | 62 | 152 | 1.0 | 10.0 | 0.00 | 0.00 | 0.00 | 1007.5 | |
| 20260903204444 | 62 | 140 | 0.0 | 11.0 | 0.00 | 0.00 | 0.00 | 1007.4 | |
| 20260903203442 | 60 | 137 | 0.0 | 11.0 | 0.00 | 0.00 | 0.00 | 1007.5 | |
| 20260903202941 | 60 | 135 | 0.0 | 5.0 | 0.00 | 0.00 | 0.00 | 1007.4 | |
| 20260903200937 | 60 | 161 | 0.0 | 7.0 | 0.00 | 0.00 | 0.00 | 1007.4 | |
| 20260903200437 | 60 | 147 | 0.0 | 16.0 | 0.00 | 0.00 | 0.00 | 1007.4 | |
| 20260903194432 | 60 | 145 | 6.0 | 13.0 | 0.00 | 0.00 | 0.00 | 1007.7 | |
| 20260903193931 | 59 | 149 | 4.0 | 13.0 | 0.00 | 0.00 | 0.00 | 1007.7 | |
| 20260903193430 | 59 | 179 | 5.0 | 11.0 | 0.00 | 0.00 | 0.00 | 1007.7 | |
| 20260903192929 | 59 | 169 | 6.0 | 11.0 | 0.00 | 0.00 | 0.00 | 95 | 1007.8 |
| 20260903192428 | 59 | 117 | 3.0 | 11.0 | 0.00 | 0.00 | 0.00 | 95 | 1007.8 |
| 20260903190925 | 59 | 123 | 6.0 | 9.0 | 0.00 | 0.00 | 0.00 | 95 | 1007.7 |
| 20260903190425 | 59 | 133 | 5.0 | 9.0 | 0.00 | 0.00 | 0.00 | 95 | 1007.8 |
| 20260903185923 | 59 | 130 | 5.0 | 9.0 | 0.00 | 0.00 | 0.00 | 95 | 1007.8 |
| 20260903185422 | 58 | 133 | 3.0 | 9.0 | 0.00 | 0.00 | 0.00 | 1008.0 | |
| 20260903182917 | 57 | 131 | 6.0 | 9.0 | 0.00 | 0.00 | 0.00 | 95 | 1007.9 |
| 20260903181915 | 57 | 135 | 3.0 | 10.0 | 0.00 | 0.00 | 0.00 | 95 | 1008.0 |
| 20260903181414 | 56 | 138 | 4.0 | 10.0 | 0.00 | 0.00 | 0.00 | 95 | 1008.1 |
| 20260903180913 | 56 | 149 | 4.0 | 9.0 | 0.00 | 0.00 | 0.00 | 95 | 1008.1 |
| 20260903180412 | 56 | 142 | 4.0 | 14.0 | 0.00 | 0.00 | 0.00 | 95 | 1008.2 |
| 20260903175911 | 56 | 161 | 2.0 | 14.0 | 0.00 | 0.00 | 0.00 | 95 | 1008.2 |
| 20260903175410 | 56 | 138 | 2.0 | 14.0 | 0.00 | 0.00 | 0.00 | 95 | 1008.1 |
| 20260903174909 | 56 | 133 | 6.0 | 11.0 | 0.00 | 0.00 | 0.00 | 95 | 1008.0 |
| 20260903174408 | 56 | 151 | 7.0 | 11.0 | 0.00 | 0.00 | 0.00 | 95 | 1008.0 |
| 20260903173907 | 56 | 131 | 4.0 | 10.0 | 0.00 | 0.00 | 0.00 | 95 | 1008.1 |
| 20260903173406 | 55 | 137 | 5.0 | 12.0 | 0.00 | 0.00 | 0.00 | 95 | 1008.0 |
| 20260903172905 | 55 | 133 | 6.0 | 12.0 | 0.00 | 0.00 | 0.00 | 95 | 1008.1 |